Simultaneous Nadir Overpasses (SNOs) Predictions

Prediction of SNOs between AURA and NPP Satellite Orbit:

Table of predicted SNOs for the next 14.0 days since TLE Epoch: 12/4/2015
Index Date (AURA) Time (AURA) Lat,Lon (AURA) SZA (AURA ) Date (NPP) Time (NPP) Lat,Lon (NPP) SZA (NPP ) Distance(km) Time Diff (sec)
1 12/05/2015 17:29:42 79.03, 171.38 114.59 12/05/2015 17:28:55 79.03, 171.39 114.63 0.31 47
2 12/05/2015 18:19:02 -79.32, -19.21 65.78 12/05/2015 18:19:33 -79.31, -19.33 65.78 2.81 31
3 12/08/2015 09:46:07 79.14, -72.08 114.81 12/08/2015 09:45:46 79.14, -72.11 114.83 0.65 21
4 12/08/2015 10:35:24 -79.53, 98.16 65.71 12/08/2015 10:36:20 -79.54, 98.28 65.78 2.47 56
5 12/11/2015 01:13:15 -78.88,-125.37 64.56 12/11/2015 01:12:03 -78.88,-125.46 64.49 2.10 72
6 12/11/2015 02:02:31 79.27, 44.64 114.95 12/11/2015 02:02:36 79.27, 44.64 114.94 0.19 5
7 12/13/2015 17:29:37 -79.09, -8.27 64.56 12/13/2015 17:28:51 -79.08, -8.28 64.53 0.35 46
8 12/13/2015 18:18:54 79.43, 161.56 115.00 12/13/2015 18:19:25 79.43, 161.66 114.95 2.29 31
9 12/16/2015 09:45:58 -79.27, 108.79 64.60 12/16/2015 09:45:38 -79.28, 108.93 64.61 3.12 20




NCC Satellite Simultaneous Nadir Overpasses (SNOs) Prediction Service
